User: anonymous   Login
Location: Hillern
(53.0557°N, 9.8577°E)
Time: 17:39:53
(UTC+00:00)
Language:

Iridium 4 Rocket - Orbit

View from above orbital plane
View from above orbital plane
View from above satellite
View from above satellite

Ground track
Ground track

The orbit data is extracted from the following two-line orbital elements,

1 24797U 97020F   25196.94327032  .00000791  00000-0  15595-3 0  9995
2 24797  86.8965 351.4229 0215769 186.8622 289.1400 14.47338572483948
Epoch (UTC): 15 July 2025 22:38:18
Eccentricity: 0.0215769
inclination: 86.8965°
perigee height: 581 km
apogee height: 888 km
right ascension of ascending node: 351.4229°
argument of perigee: 186.8622°
revolutions per day: 14.47338572
mean anomaly at epoch: 289.1400°
orbit number at epoch: 48394

The dashed part of the orbit path shows where the satellite is in the earth's shadow,  

DLR